Weather reports worldwide

Advertisment
Hoherodskopf/Vogelsberg, Germany (10534): temperature & dewpoint: 20.09.2018 17:00:00 - 26.09.2018 17:00:00 (CEST)Hoherodskopf/Vogelsberg, Germany (10534): temperature 5cm & temperature -5cm: 20.09.2018 17:00:00 - 26.09.2018 17:00:00 (CEST)Hoherodskopf/Vogelsberg, Germany (10534): temperature -20cm & temperature -100cm: 20.09.2018 17:00:00 - 26.09.2018 17:00:00 (CEST)Hoherodskopf/Vogelsberg, Germany (10534): wind speed & gusts: 20.09.2018 17:00:00 - 26.09.2018 17:00:00 (CEST)Hoherodskopf/Vogelsberg, Germany (10534): wind direction: 20.09.2018 17:00:00 - 26.09.2018 17:00:00 (CEST)Hoherodskopf/Vogelsberg, Germany (10534): reduced air pressure: 20.09.2018 17:00:00 - 26.09.2018 17:00:00 (CEST)Hoherodskopf/Vogelsberg, Germany (10534): visibility: 20.09.2018 17:00:00 - 26.09.2018 17:00:00 (CEST)Hoherodskopf/Vogelsberg, Germany (10534): sunshine duration: 20.09.2018 17:00:00 - 26.09.2018 17:00:00 (CEST)Hoherodskopf/Vogelsberg, Germany (10534): precipitation: 20.09.2018 17:00:00 - 26.09.2018 17:00:00 (CEST)
Date & Time tt [°C] td [°C] tt 5cm [°C] tt -5cm [°C] tt -20cm [°C] tt -100cm [°C] ff [km/h] ff [kn] fx [km/h] fx [kn] dd ppp [hPa] vv [km] sd [min] rr [mm]
26.09.2018 17:00:00 11,6 -1,4 14,3 13,3 10,4 13,9 10 6 17 9 SW 1032,9 52 55 0,0
26.09.2018 16:00:00 11,9 -2,2 14,6 14,0 10,3 14,0 11 6 19 11 WSW 1033,5 59 60 0,0
26.09.2018 15:00:00 11,3 -1,5 15,1 13,7 10,2 14,0 15 8 21 11 SW 1033,8 68 60 0,0
26.09.2018 14:00:00 10,9 -1,2 15,1 13,2 10,2 14,0 13 7 22 12 S 1034,3 58 60 0,0
26.09.2018 13:00:00 10,1 -1,1 14,9 11,2 10,2 14,0 14 8 24 13 SSW 1034,8 55 60 0,0
26.09.2018 12:00:00 8,5 -1,3 12,3 9,1 10,2 14,0 17 9 34 18 S 1035,5 75 60 0,0
26.09.2018 11:00:00 8,2 -1,1 10,9 7,3 10,3 14,0 22 12 33 18 SSE 1035,8 69 60 0,0
26.09.2018 10:00:00 6,8 -1,7 8,7 5,4 10,5 14,0 25 13 35 19 SSE 1036,1 59 59 0,0
26.09.2018 09:00:00 5,3 -1,7 5,1 4,4 10,6 14,0 23 13 34 19 SE 1036,3 75 29 0,0
26.09.2018 08:00:00 5,0 -1,9 3,8 4,0 10,7 14,0 24 13 35 19 SE 1036,2 71 0 0,0
26.09.2018 07:00:00 4,8 -1,8 3,3 4,1 10,8 14,1 22 12 33 18 SE 1036,3 57 0 0,0
26.09.2018 06:00:00 4,4 -1,4 2,9 4,0 10,9 14,1 22 12 34 19 SE 1036,6 67 0 0,0
26.09.2018 05:00:00 4,5 -1,5 2,7 4,1 11,1 14,1 22 12 33 18 SE 1036,9 62 0 0,0
26.09.2018 04:00:00 4,4 -1,0 1,9 4,4 11,2 14,1 16 8 26 14 SE 1037,8 63 0 0,0
26.09.2018 03:00:00 4,4 -0,5 1,9 4,8 11,3 14,1 14 8 25 14 SE 1038,0 66 0 0,0
26.09.2018 02:00:00 4,8 -0,6 2,5 5,2 11,4 14,1 14 8 24 13 ESE 1038,0 61 0 0,0
26.09.2018 01:00:00 5,1 0,1 2,5 5,7 11,4 14,1 13 7 21 11 ESE 1038,8 72 0 0,0
26.09.2018 00:00:00 5,6 0,1 3,2 6,3 11,4 14,1 11 6 18 10 ESE 1038,8 65 0 0,0
25.09.2018 23:00:00 5,9 0,5 3,6 6,9 11,4 14,1 9 5 18 10 E 1039,3 71 0 0,0
25.09.2018 22:00:00 5,4 0,7 3,5 7,8 11,4 14,2 9 5 18 10 E 1039,3 57 0 0,0
25.09.2018 21:00:00 5,9 0,9 3,6 9,0 11,3 14,2 9 5 16 9 ENE 1039,5 64 0 0,0
25.09.2018 20:00:00 6,8 0,4 4,5 10,6 11,2 14,2 8 4 13 7 ENE 1039,0 62 9 0,0
25.09.2018 19:00:00 7,5 0,0 6,5 12,6 11,0 14,2 5 3 12 6 E 1038,3 69 56 0,0
25.09.2018 18:00:00 8,9 1,1 10,2 13,4 10,9 14,2 6 3 18 10 ENE 1038,0 70 60 0,0
25.09.2018 17:00:00 9,6 2,1 12,4 13,3 10,7 14,2 4 2 14 7 ENE 1037,8 63 25 0,0
25.09.2018 16:00:00 8,0 1,5 9,1 13,5 10,6 14,2 5 3 16 9 NE 1038,8 70 21 0,0
25.09.2018 15:00:00 8,1 1,8 10,1 13,4 10,5 14,2 5 3 16 9 NNE 1039,3 63 8 0,0
25.09.2018 14:00:00 9,5 2,4 15,4 13,1 10,5 14,3 6 3 17 9 NE 1038,8 60 29 0,0
25.09.2018 13:00:00 8,1 1,2 12,9 12,6 10,5 14,3 8 4 17 9 NW 1039,1 67 46 0,0
25.09.2018 12:00:00 9,0 2,4 16,5 9,4 10,6 14,3 9 5 20 11 NNE 1038,9 55 49 0,0
25.09.2018 11:00:00 6,5 2,3 7,8 7,0 10,7 14,3 7 4 18 10 NE 1039,5 43 43 0,0
25.09.2018 10:00:00 5,8 1,9 9,6 5,1 10,8 14,3 9 5 17 9 N 1039,0 44 60 0,0
25.09.2018 09:00:00 4,8 1,6 6,1 3,9 10,9 14,3 10 5 19 11 N 1038,7 54 60 0,0
25.09.2018 08:00:00 3,7 1,5 2,0 3,8 11,1 14,3 12 6 24 13 N 1038,5 44 2 0,0
25.09.2018 07:00:00 3,9 0,8 1,5 4,0 11,2 14,3 15 8 25 13 N 1038,0 54 0 0,0
25.09.2018 06:00:00 3,4 2,2 1,7 4,2 11,3 14,3 16 9 29 15 N 1037,8 37 0 0,0
25.09.2018 05:00:00 3,4 2,2 1,6 4,4 11,4 14,3 17 9 27 14 N 1037,8 45 0 0,0
25.09.2018 04:00:00 3,2 2,3 1,5 4,7 11,5 14,3 19 10 28 15 NNW 1037,6 37 0 0,0
25.09.2018 03:00:00 3,3 2,5 1,7 5,0 11,6 14,4 20 11 27 15 NNW 1037,5 39 0 0,0
25.09.2018 02:00:00 3,6 2,6 2,0 5,4 11,7 14,4 20 11 30 16 NNW 1037,3 42 0 0,0
25.09.2018 01:00:00 3,7 2,6 2,2 5,9 11,8 14,4 21 11 29 16 NNW 1037,1 50 0 0,0
25.09.2018 00:00:00 4,2 2,9 2,6 6,6 11,9 14,4 16 9 22 12 NW 1036,6 44 0 0,0
24.09.2018 23:00:00 5,0 2,8 4,5 6,8 11,9 14,4 18 10 29 16 NW 1035,7 49 0 0,0
24.09.2018 22:00:00 4,9 2,3 3,4 7,2 11,9 14,4 20 11 30 16 NNW 1035,5 55 0 0,0
24.09.2018 21:00:00 5,4 2,1 4,0 7,8 11,9 14,4 22 12 31 17 NNW 1034,8 60 0 0,0
24.09.2018 20:00:00 5,7 1,9 4,0 8,5 11,9 14,4 22 12 43 23 NW 1033,8 58 9 0,0
24.09.2018 19:00:00 6,9 2,0 6,4 9,9 11,8 14,4 24 13 39 21 NW 1032,8 56 25 0,0
24.09.2018 18:00:00 8,1 2,3 8,2 10,8 11,8 14,4 26 14 43 23 WNW 1032,0 63 10 0,0
24.09.2018 17:00:00 9,6 2,5 12,3 11,6 11,7 14,4 31 17 44 24 NW 1031,3 55 28 0,0
24.09.2018 16:00:00 8,7 2,7 12,3 12,4 11,7 14,5 27 15 44 24 WNW 1031,7 75 50 0,0
24.09.2018 15:00:00 7,3 3,0 8,8 11,3 11,7 14,5 24 13 43 23 W 1032,5 48 32 0,0
24.09.2018 14:00:00 6,8 3,9 8,7 10,8 11,7 14,5 18 10 43 23 WNW 1032,7 40 19 0,3
24.09.2018 13:00:00 7,0 2,5 9,9 10,3 11,8 14,5 19 11 38 20 W 1032,6 45 - 0,0
24.09.2018 12:00:00 5,9 3,8 7,7 9,0 11,8 14,5 22 12 38 20 WNW 1032,7 36 - 0,0
24.09.2018 11:00:00 5,1 4,9 7,3 7,9 11,9 14,5 23 12 35 19 WNW 1032,3 20 - 0,0
24.09.2018 10:00:00 3,9 3,9 5,0 7,0 12,0 14,5 22 12 35 19 WNW 1031,9 0,1 - 0,0
24.09.2018 09:00:00 3,5 3,5 4,4 6,6 12,1 14,5 21 11 32 17 WNW 1030,8 0,1 - 0,0
24.09.2018 08:00:00 3,3 3,3 3,8 6,5 12,2 14,5 24 13 - - WNW 1029,8 0,1 - 0,0
24.09.2018 07:00:00 3,3 3,3 3,7 6,8 12,3 14,5 23 12 39 21 WNW 1028,7 0,1 - 0,0
24.09.2018 06:00:00 3,7 3,7 4,1 7,0 12,4 14,5 22 12 36 19 WNW 1027,9 0,1 - 0,0
24.09.2018 05:00:00 3,9 3,9 4,2 7,1 12,5 14,5 22 12 35 19 WNW 1027,2 0,1 - 0,0
24.09.2018 04:00:00 4,0 4,0 4,4 7,3 12,6 14,5 18 10 35 19 WNW 1026,3 0,1 - 0,0
24.09.2018 03:00:00 4,1 4,1 4,5 7,4 12,7 14,5 17 9 31 17 WNW 1025,5 0,1 - 0,0
24.09.2018 02:00:00 4,0 4,0 4,5 7,6 12,8 14,6 18 10 28 15 WNW 1024,0 0,1 - 0,0
24.09.2018 01:00:00 4,0 4,0 4,5 7,7 12,9 14,6 19 11 42 23 NW 1022,5 0,2 - 0,0
24.09.2018 00:00:00 4,0 4,0 4,3 7,9 13,0 14,6 31 17 56 30 NW 1020,8 16 - 0,0
23.09.2018 23:00:00 4,1 4,0 4,4 8,3 13,0 14,6 35 19 56 30 NNW 1018,5 16 - 0,0
23.09.2018 22:00:00 4,3 4,3 4,6 8,8 13,1 14,6 36 20 65 35 NNW 1016,9 28 - 0,2
23.09.2018 21:00:00 5,2 5,2 5,6 9,5 13,1 14,5 41 22 58 32 NW 1013,7 16 - 0,2
23.09.2018 20:00:00 5,8 5,8 6,2 10,3 13,1 14,5 33 18 61 33 NNW 1011,6 10 - 1,0
23.09.2018 19:00:00 7,6 7,6 8,0 11,2 13,0 14,5 32 17 56 30 NNW 1007,8 4,9 - 0,2
23.09.2018 18:00:00 8,4 8,4 9,0 12,0 13,0 14,5 18 10 67 36 N 1005,3 0,5 - 0,2
23.09.2018 17:00:00 9,7 9,7 10,0 12,8 13,0 14,5 39 21 90 49 NW 1003,7 0,2 - 17,8
23.09.2018 16:00:00 15,4 15,4 15,5 13,3 13,1 14,5 44 24 73 39 SSW 1000,0 0,1 - 0,1
23.09.2018 15:00:00 14,9 14,9 14,9 12,7 13,1 14,5 47 25 68 37 SSW 1002,9 0,1 - 1,0
23.09.2018 14:00:00 12,8 12,8 13,1 12,3 13,2 14,5 23 13 36 20 SSW 1005,9 0,2 - 5,8
23.09.2018 13:00:00 11,8 11,8 12,2 11,6 13,3 14,5 22 12 39 21 SSW 1008,4 0,2 - 4,0
23.09.2018 12:00:00 10,5 10,5 11,0 11,1 13,3 14,5 19 10 31 17 S 1009,8 0,2 - 2,3
23.09.2018 11:00:00 9,3 9,3 10,0 10,5 13,4 14,5 16 9 29 16 S 1011,3 0,2 - 1,4
23.09.2018 10:00:00 8,7 8,7 9,3 10,0 13,5 14,5 17 9 29 15 S 1011,9 0,2 - 0,8
23.09.2018 09:00:00 8,0 8,0 8,5 9,5 13,6 14,5 19 10 29 16 SSE 1012,7 0,1 - 0,6
23.09.2018 08:00:00 7,6 7,6 7,9 9,3 13,7 14,5 21 11 31 17 SSE 1013,3 0,1 - 0,8
23.09.2018 07:00:00 7,1 7,1 7,3 9,3 13,8 14,5 18 10 25 14 SSE 1014,5 0,2 - 1,4
23.09.2018 06:00:00 6,8 6,8 7,1 9,3 13,8 14,5 18 10 32 18 SSE 1015,1 0,1 - 0,8
23.09.2018 05:00:00 6,7 6,7 7,0 9,4 13,9 14,5 22 12 32 17 SSE 1016,4 0,1 - 0,3
23.09.2018 04:00:00 6,6 6,6 7,0 9,5 14,0 14,5 16 9 27 15 S 1017,6 0,1 - 0,8
23.09.2018 03:00:00 6,8 6,8 7,1 9,6 14,1 14,5 16 9 26 14 SSW 1018,5 0,1 - 0,5
23.09.2018 02:00:00 6,7 6,7 7,0 9,7 14,2 14,5 14 7 22 12 SSW 1019,3 0,3 - 0,0
23.09.2018 01:00:00 6,8 6,7 6,9 9,8 14,2 14,5 10 5 16 8 SW 1019,7 8 - 0,0
23.09.2018 00:00:00 7,0 6,6 7,0 9,9 14,3 14,5 10 5 18 10 WSW 1020,0 28 - 0,0
22.09.2018 23:00:00 7,0 6,6 7,0 10,1 14,3 14,5 13 7 20 11 W 1020,0 28 - 0,2
22.09.2018 22:00:00 6,8 6,4 7,0 10,4 14,4 14,5 11 6 17 9 WSW 1020,7 36 - 0,1
22.09.2018 21:00:00 7,0 6,3 6,9 10,6 14,4 14,5 11 6 43 23 W 1020,5 37 - 0,3
22.09.2018 20:00:00 9,5 4,3 8,8 11,3 14,4 14,5 29 16 46 25 W 1019,6 49 - 0,0
22.09.2018 19:00:00 10,2 4,6 9,5 12,1 14,4 14,5 17 9 28 15 WSW 1019,1 61 - 0,0
22.09.2018 18:00:00 10,0 5,4 10,0 12,8 14,3 14,5 20 11 40 22 SSW 1019,4 48 - 0,0
22.09.2018 17:00:00 10,6 6,4 11,7 13,3 14,3 14,5 14 8 29 16 SSW 1020,0 46 - 0,0
22.09.2018 16:00:00 9,0 5,6 9,3 13,8 14,3 14,5 16 9 30 16 WSW 1020,8 49 - 0,0
22.09.2018 15:00:00 10,6 4,9 12,9 14,4 14,3 14,5 21 12 36 20 WSW 1020,7 47 - 0,0
22.09.2018 14:00:00 10,4 4,7 14,3 14,4 14,4 14,5 26 14 42 23 SSW 1021,1 49 - 0,0
22.09.2018 13:00:00 10,1 5,3 14,5 12,4 14,4 14,5 19 11 31 17 SW 1021,4 49 - 0,0
22.09.2018 12:00:00 8,3 6,2 10,8 11,2 14,6 14,5 16 9 28 15 SW 1022,4 34 - 0,0
22.09.2018 11:00:00 7,6 5,9 9,4 10,3 14,7 14,5 19 10 29 16 SW 1022,8 38 - 0,0
22.09.2018 10:00:00 6,6 5,3 8,2 9,3 14,8 14,5 16 9 28 15 WSW 1022,6 36 - 0,0
22.09.2018 09:00:00 5,8 4,5 6,4 8,7 15,0 14,5 16 9 27 15 WSW 1023,0 32 - 0,0
22.09.2018 08:00:00 5,7 4,3 5,9 8,5 15,2 14,5 17 9 33 18 W 1022,5 36 - 0,0
22.09.2018 07:00:00 5,9 4,2 5,7 8,5 15,3 14,5 20 11 32 17 WSW 1021,4 39 - 0,0
22.09.2018 06:00:00 6,0 4,0 5,9 8,6 15,5 14,5 19 11 34 19 WSW 1021,4 41 - 0,0
22.09.2018 05:00:00 6,6 4,0 6,0 8,6 15,7 14,5 22 12 37 20 WSW 1020,8 39 - 0,0
22.09.2018 04:00:00 6,9 3,6 6,0 8,4 15,9 14,5 25 14 40 22 WSW 1020,3 44 - 0,0
22.09.2018 03:00:00 6,6 3,2 4,7 8,4 16,1 14,4 23 13 38 21 WSW 1020,0 41 - 0,0
22.09.2018 02:00:00 6,8 3,1 4,8 8,7 16,3 14,4 26 14 42 23 WSW 1019,6 55 - 0,0
22.09.2018 01:00:00 7,0 3,4 5,0 9,1 16,5 14,4 27 15 42 23 WSW 1019,1 56 - 0,0
22.09.2018 00:00:00 7,0 3,8 5,0 9,6 16,6 14,4 23 13 39 21 WSW 1018,7 60 - 0,0
21.09.2018 23:00:00 6,9 4,5 5,2 10,3 16,8 14,4 21 12 35 19 W 1018,1 63 - 0,0
21.09.2018 22:00:00 7,2 6,0 6,0 11,0 16,9 14,4 21 12 34 18 WSW 1016,9 53 - 0,0
21.09.2018 21:00:00 7,3 6,1 6,4 11,9 17,1 14,4 18 10 35 19 W 1016,1 58 - 0,0
21.09.2018 20:00:00 8,4 8,4 8,5 12,7 17,2 14,4 22 12 40 22 W 1014,4 3,2 - 0,0
21.09.2018 19:00:00 9,1 9,1 9,5 13,2 17,3 14,4 26 14 43 23 W 1012,7 0,1 - 0,0
21.09.2018 18:00:00 8,8 8,8 9,5 13,5 17,3 14,4 28 15 45 24 W 1011,9 2,1 - 1,5
21.09.2018 17:00:00 8,4 8,4 9,0 14,1 17,3 14,4 20 11 51 28 W 1011,5 0,1 - 3,4
21.09.2018 16:00:00 8,4 8,4 9,1 16,0 17,4 14,4 32 17 49 26 W 1011,2 0,2 - 4,6
21.09.2018 15:00:00 16,3 11,0 14,4 18,0 17,4 14,4 35 19 64 35 SW 1007,3 34 - 0,0
21.09.2018 14:00:00 17,6 10,9 18,5 18,1 17,4 14,4 36 19 67 36 SSW 1006,9 48 - 0,0
21.09.2018 13:00:00 17,0 12,2 17,5 17,9 17,4 14,4 36 20 53 29 SSW 1007,8 38 - 0,0
21.09.2018 12:00:00 17,0 12,2 18,1 18,0 17,5 14,4 31 17 56 31 SSW 1008,2 39 - 0,0
21.09.2018 11:00:00 17,4 11,8 18,5 17,2 17,6 14,4 32 18 52 28 SSW 1008,4 55 - 0,0
21.09.2018 10:00:00 17,5 11,6 17,7 16,9 17,7 14,4 30 16 46 25 SSW 1008,4 47 - 0,0
21.09.2018 09:00:00 17,6 11,6 19,7 15,8 17,8 14,4 23 12 35 19 S 1008,4 45 - 0,0
21.09.2018 08:00:00 16,1 11,0 14,9 15,4 17,9 14,4 23 13 37 20 S 1009,2 42 - 0,0
21.09.2018 07:00:00 16,5 10,8 14,9 15,6 18,0 14,4 24 13 37 20 S 1009,6 50 - 0,0
21.09.2018 06:00:00 16,9 10,4 15,0 15,9 18,1 14,4 21 12 35 19 S 1010,3 48 - 0,0
21.09.2018 05:00:00 17,0 10,9 15,2 16,3 18,1 14,4 23 13 36 19 S 1011,0 47 - 0,0
21.09.2018 04:00:00 17,6 11,3 15,9 16,6 18,2 14,4 22 12 34 18 S 1011,4 48 - 0,0
21.09.2018 03:00:00 17,8 11,8 15,9 16,9 18,3 14,4 19 10 29 16 S 1011,8 43 - 0,0
21.09.2018 02:00:00 18,2 12,2 16,2 17,3 18,4 14,4 19 10 31 17 S 1012,4 44 - 0,0
21.09.2018 01:00:00 18,0 11,9 16,2 17,6 18,4 14,3 20 11 29 15 S 1013,0 45 - 0,0
21.09.2018 00:00:00 18,5 11,7 16,7 18,1 18,4 14,3 21 12 32 18 SSW 1013,5 48 - 0,0
20.09.2018 23:00:00 18,5 11,4 16,6 18,6 18,4 14,3 21 12 34 18 SSW 1014,0 45 - 0,0
20.09.2018 22:00:00 19,1 11,1 17,2 19,3 18,3 14,3 21 11 31 17 SSW 1014,4 45 - 0,0
20.09.2018 21:00:00 19,3 10,8 17,4 20,2 18,2 14,3 20 11 31 17 SSW 1014,8 49 - 0,0
20.09.2018 20:00:00 19,8 10,5 17,8 21,7 18,0 14,3 21 11 27 15 SSW 1014,7 57 - 0,0
20.09.2018 19:00:00 20,7 9,8 20,1 23,5 17,9 14,3 15 8 31 17 SSW 1014,7 49 - 0,0
20.09.2018 18:00:00 21,8 8,5 23,5 24,9 17,7 14,3 18 10 33 18 SSW 1015,1 68 - 0,0
20.09.2018 17:00:00 22,2 8,4 25,4 25,5 17,5 14,3 21 12 41 22 SW 1015,3 48 - 0,0

tt = temperature
td = dewpoint
tt 5cm = temperature 5cm
tt -5cm = temperature -5cm
tt -20cm = temperature -20cm
tt -100cm = temperature -100cm
ff = wind speed
fx = gusts
dd = wind direction
ppp = reduced air pressure
vv = visibility
sd = sunshine duration
rr = precipitation

Next stations